Location: Zagreb
(45.8000°N, 16.0000°E)
Time: 20:28:26
(UTC+02:00)

SR - Pass Details

Date: 13 August 2020
Orbit: 583 x 873 km, 66.7° (Epoch: 28 September)

Event Time Altitude Azimuth Distance (km) Brightness Sun altitude
Rises 07:01:42 0° 321° (NW) 2,834 ? 10.5°
Reaches altitude 10° 07:03:58 10° 316° (NW) 1,947 ? 10.9°
Maximum altitude 07:08:07 45° 243° (WSW) 845 ? 11.6°
Drops below altitude 10° 07:12:31 10° 171° (S) 2,055 ? 12.4°
Sets 07:14:57 0° 165° (SSE) 3,009 ? 12.8°
